Location: Babice
(50.3480°N, 22.9363°E)
Time: 12:16:37
(UTC+00:00)

Cosmos 1666 - Pass Details

Date: 14 July 2020
Orbit: 497 x 521 km, 82.5° (Epoch: 08 August)

Event Time Altitude Azimuth Distance (km) Brightness Sun altitude
Exits shadow 01:13:07 14° 207° (SSW) 1,499 4.4 -9.9°
Maximum altitude 01:16:16 54° 283° (WNW) 620 2.9 -9.6°
Drops below altitude 10° 01:19:59 10° 2° (N) 1,724 6.2 -9.3°
Sets 01:22:08 0° 7° (N) 2,610 7.4 -9.0°
